• In Russia
  • List of Countries
  • For 7 days
  • Water Temperature
  • Satellite Maps
  • Weather Map
  • Weather Widgets
  • user-avatar
    Login

    Hourly Weather Hobart

    Today, 1 May, Monday

    Time Temperature Precipitation Wind Pressure Humidity
    00:00 +11°C° 0 mm 4 mps 745 mmHg 86%
    01:00 +11°C° 0 mm 4 mps 744 mmHg 85%
    02:00 +12°C° 0 mm 4 mps 744 mmHg 85%
    03:00 +12°C° 0 mm 4 mps 743 mmHg 84%
    04:00 +12°C° 0 mm 4 mps 742 mmHg 84%
    05:00 +12°C° 0 mm 4 mps 742 mmHg 83%
    06:00 +13°C° 0 mm 5 mps 741 mmHg 82%
    07:00 +13°C° 0 mm 5 mps 741 mmHg 81%
    08:00 +14°C° 0 mm 6 mps 741 mmHg 75%
    09:00 +15°C° 0 mm 6 mps 740 mmHg 70%
    10:00 +16°C° 0 mm 7 mps 740 mmHg 65%
    11:00 +16°C° 0.3 mm 7 mps 739 mmHg 71%
    12:00 +15°C° 0.3 mm 7 mps 739 mmHg 76%
    13:00 +14°C° 0.3 mm 7 mps 739 mmHg 82%
    14:00 +12°C° 0.2 mm 7 mps 739 mmHg 80%
    15:00 +11°C° 0.2 mm 7 mps 740 mmHg 78%
    16:00 +10°C° 0.2 mm 8 mps 740 mmHg 76%
    17:00 +9°C° 0 mm 7 mps 740 mmHg 78%
    18:00 +8°C° 0 mm 6 mps 741 mmHg 80%
    19:00 +7°C° 0 mm 6 mps 742 mmHg 82%
    20:00 +5°C° 0 mm 6 mps 742 mmHg 83%
    21:00 +5°C° 0 mm 6 mps 742 mmHg 83%
    22:00 +5°C° 0 mm 5 mps 743 mmHg 84%
    23:00 +4°C° 0 mm 6 mps 743 mmHg 83%

    Tomorrow, 2 May, Tuesday

    Time Temperature Precipitation Wind Pressure Humidity
    00:00 +4°C° 0 mm 6 mps 743 mmHg 83%
    01:00 +4°C° 0 mm 6 mps 743 mmHg 82%
    02:00 +4°C° 0 mm 6 mps 743 mmHg 82%
    03:00 +4°C° 0 mm 6 mps 743 mmHg 81%
    04:00 +4°C° 0 mm 6 mps 743 mmHg 80%
    05:00 +4°C° 0.1 mm 7 mps 743 mmHg 81%
    06:00 +4°C° 0.1 mm 7 mps 743 mmHg 82%
    07:00 +4°C° 0.1 mm 7 mps 743 mmHg 82%
    08:00 +5°C° 0.1 mm 8 mps 743 mmHg 74%
    09:00 +6°C° 0.1 mm 9 mps 744 mmHg 66%
    10:00 +7°C° 0.1 mm 9 mps 744 mmHg 58%
    11:00 +8°C° 0.1 mm 9 mps 745 mmHg 54%
    12:00 +8°C° 0.1 mm 9 mps 745 mmHg 51%
    13:00 +10°C° 0.1 mm 9 mps 746 mmHg 47%
    14:00 +8°C° 0.1 mm 9 mps 746 mmHg 51%
    15:00 +8°C° 0.1 mm 9 mps 747 mmHg 55%
    16:00 +7°C° 0.1 mm 8 mps 747 mmHg 58%
    17:00 +6°C° 0 mm 8 mps 748 mmHg 65%
    18:00 +5°C° 0 mm 7 mps 749 mmHg 71%
    19:00 +4°C° 0 mm 7 mps 750 mmHg 78%
    20:00 +4°C° 0 mm 7 mps 751 mmHg 77%
    21:00 +4°C° 0 mm 7 mps 751 mmHg 75%
    22:00 +5°C° 0 mm 7 mps 752 mmHg 74%
    23:00 +5°C° 0 mm 6 mps 753 mmHg 74%

    Day after tomorrow, 3 May, Wednesday

    Time Temperature Precipitation Wind Pressure Humidity
    00:00 +5°C° 0 mm 6 mps 753 mmHg 75%
    01:00 +5°C° 0 mm 6 mps 753 mmHg 75%
    02:00 +4°C° 0 mm 6 mps 754 mmHg 76%
    03:00 +5°C° 0 mm 5 mps 754 mmHg 77%
    04:00 +5°C° 0 mm 5 mps 754 mmHg 78%
    05:00 +5°C° 0 mm 5 mps 755 mmHg 82%
    06:00 +3°C° 0 mm 5 mps 755 mmHg 85%
    07:00 +4°C° 0 mm 4 mps 756 mmHg 88%
    08:00 +6°C° 0 mm 5 mps 756 mmHg 80%
    09:00 +7°C° 0 mm 5 mps 757 mmHg 72%
    10:00 +9°C° 0 mm 5 mps 757 mmHg 64%
    11:00 +10°C° 0 mm 4 mps 757 mmHg 63%
    12:00 +11°C° 0 mm 4 mps 757 mmHg 62%
    13:00 +11°C° 0 mm 4 mps 757 mmHg 61%
    14:00 +11°C° 0 mm 4 mps 757 mmHg 62%
    15:00 +11°C° 0 mm 4 mps 757 mmHg 62%
    16:00 +11°C° 0 mm 3 mps 758 mmHg 63%
    17:00 +9°C° 0 mm 3 mps 758 mmHg 72%
    18:00 +7°C° 0 mm 3 mps 758 mmHg 81%
    19:00 +5°C° 0 mm 3 mps 759 mmHg 89%
    20:00 +5°C° 0 mm 3 mps 759 mmHg 91%
    21:00 +4°C° 0 mm 3 mps 759 mmHg 92%
    22:00 +4°C° 0 mm 3 mps 759 mmHg 94%
    23:00 +4°C° 0 mm 3 mps 759 mmHg 94%

    4 May, Thursday

    Time Temperature Precipitation Wind Pressure Humidity
    00:00 +4°C° 0 mm 3 mps 759 mmHg 95%
    01:00 +4°C° 0 mm 3 mps 759 mmHg 95%
    02:00 +4°C° 0 mm 3 mps 759 mmHg 94%
    03:00 +5°C° 0 mm 2 mps 759 mmHg 93%
    04:00 +5°C° 0 mm 2 mps 759 mmHg 91%
    05:00 +5°C° 0 mm 2 mps 759 mmHg 91%
    06:00 +5°C° 0 mm 2 mps 760 mmHg 90%
    07:00 +5°C° 0 mm 2 mps 760 mmHg 89%
    08:00 +7°C° 0 mm 2 mps 760 mmHg 82%
    09:00 +9°C° 0 mm 2 mps 760 mmHg 75%
    10:00 +12°C° 0 mm 2 mps 760 mmHg 68%
    11:00 +13°C° 0 mm 1 mps 760 mmHg 67%
    12:00 +14°C° 0 mm 1 mps 760 mmHg 65%
    13:00 +15°C° 0 mm 1 mps 759 mmHg 63%
    14:00 +14°C° 0 mm 1 mps 759 mmHg 67%
    15:00 +14°C° 0 mm 1 mps 759 mmHg 72%
    16:00 +13°C° 0 mm 1 mps 759 mmHg 76%
    17:00 +12°C° 0 mm 1 mps 759 mmHg 80%
    18:00 +11°C° 0 mm 1 mps 759 mmHg 84%
    19:00 +10°C° 0 mm 1 mps 760 mmHg 88%
    20:00 +9°C° 0 mm 1 mps 760 mmHg 89%
    21:00 +8°C° 0 mm 1 mps 760 mmHg 91%
    22:00 +7°C° 0 mm 1 mps 760 mmHg 93%
    23:00 +7°C° 0 mm 1 mps 759 mmHg 93%

    5 May, Friday

    Time Temperature Precipitation Wind Pressure Humidity
    00:00 +7°C° 0 mm 1 mps 759 mmHg 93%
    01:00 +7°C° 0 mm 1 mps 759 mmHg 93%
    02:00 +6°C° 0 mm 2 mps 759 mmHg 93%
    03:00 +6°C° 0 mm 2 mps 758 mmHg 93%
    04:00 +6°C° 0 mm 2 mps 758 mmHg 93%
    05:00 +6°C° 0 mm 2 mps 758 mmHg 93%
    06:00 +6°C° 0 mm 2 mps 758 mmHg 94%
    07:00 +6°C° 0 mm 2 mps 758 mmHg 94%
    08:00 +8°C° 0 mm 2 mps 758 mmHg 86%
    09:00 +10°C° 0 mm 2 mps 758 mmHg 79%
    10:00 +13°C° 0 mm 2 mps 758 mmHg 72%
    11:00 +14°C° 0 mm 2 mps 757 mmHg 66%
    12:00 +15°C° 0 mm 2 mps 757 mmHg 60%
    13:00 +16°C° 0 mm 2 mps 756 mmHg 53%
    14:00 +16°C° 0 mm 1 mps 756 mmHg 57%
    15:00 +15°C° 0 mm 1 mps 755 mmHg 60%
    16:00 +15°C° 0 mm 1 mps 755 mmHg 64%
    17:00 +14°C° 0 mm 2 mps 755 mmHg 70%
    18:00 +12°C° 0 mm 2 mps 755 mmHg 77%
    19:00 +9°C° 0 mm 3 mps 755 mmHg 83%
    20:00 +9°C° 0 mm 3 mps 754 mmHg 85%
    21:00 +9°C° 0 mm 3 mps 754 mmHg 86%
    22:00 +8°C° 0 mm 3 mps 754 mmHg 88%
    23:00 +8°C° 0 mm 3 mps 753 mmHg 89%

    6 May, Saturday

    Time Temperature Precipitation Wind Pressure Humidity
    00:00 +8°C° 0 mm 3 mps 752 mmHg 91%
    01:00 +8°C° 0 mm 3 mps 752 mmHg 93%
    02:00 +8°C° 0 mm 3 mps 751 mmHg 93%
    03:00 +8°C° 0 mm 3 mps 751 mmHg 94%
    04:00 +6°C° 0 mm 4 mps 750 mmHg 95%
    05:00 +7°C° 0 mm 4 mps 750 mmHg 94%
    06:00 +7°C° 0 mm 4 mps 749 mmHg 94%
    07:00 +8°C° 0 mm 4 mps 749 mmHg 93%
    08:00 +11°C° 0 mm 4 mps 749 mmHg 84%
    09:00 +13°C° 0 mm 5 mps 748 mmHg 74%
    10:00 +14°C° 0 mm 5 mps 748 mmHg 64%
    11:00 +15°C° 0 mm 5 mps 747 mmHg 58%
    12:00 +16°C° 0 mm 5 mps 746 mmHg 52%
    13:00 +17°C° 0 mm 5 mps 745 mmHg 46%
    14:00 +16°C° 0 mm 5 mps 744 mmHg 49%
    15:00 +17°C° 0 mm 4 mps 744 mmHg 52%
    16:00 +15°C° 0 mm 4 mps 743 mmHg 55%
    17:00 +14°C° 0 mm 4 mps 743 mmHg 61%
    18:00 +12°C° 0 mm 5 mps 742 mmHg 67%
    19:00 +9°C° 0 mm 5 mps 742 mmHg 73%
    20:00 +9°C° 0 mm 5 mps 741 mmHg 75%
    21:00 +9°C° 0 mm 5 mps 740 mmHg 78%
    22:00 +9°C° 0 mm 5 mps 740 mmHg 80%
    23:00 +9°C° 0.1 mm 5 mps 739 mmHg 84%
    Show more